Regional Weather Roundup
Issued by NWS

Home | Current Version | Previous Version | Text Only | Print | Product List | Glossary On
Versions: 1 2 3 4 5 6 7 8 9 10 11 12 13 14 15 16 17 18 19 20 21 22 23 24 25 26 27 28 29 30 31 32 33 34 35 36 37 38 39 40 41 42 43 44 45 46 47 48 49 50
575
ASCA42 TJSJ 290610
RWRPR
PUERTO RICO/U.S. VIRGIN ISLANDS HOURLY WEATHER ROUNDUP
NATIONAL WEATHER SERVICE SAN JUAN PR
200 AM AST FRI APR 29 2016

PRZ001-004-290700-
PUERTO RICO

CITY           SKY/WX    TMP DP  RH WIND       PRES   REMARKS
SAN JUAN LMM   PTCLDY    79  75  89 CALM      29.92F
PONCE          LGT RAIN  75  75 100 NW6       29.92F
CEIBA          MOCLDY    79  73  83 E5        29.94F
$$

PRZ006-007-290700-
U.S. VIRGIN ISLANDS

CITY           SKY/WX    TMP DP  RH WIND       PRES   REMARKS
CHARLOTTE AMA  PTCLDY    81  75  83 E3        29.92F
CHRISTIANSTED  PTCLDY    77  75  94 N5        29.93F
$$

HOURLY WEATHER ROUNDUP FOR THE NEWS MEDIA

CITY           SKY/WX    TMP DP  RH WIND       PRES   REMARKS
ORLANDO        CLEAR     74  69  85 S5        29.99F
NEW YORK       CLOUDY    49  37  63 CALM      30.06F
NEWARK         CLOUDY    49  37  63 VRB3      30.05F
CHICAGO        CLOUDY    42  42 100 N7        30.01R FOG
HARTFORD       LGT RAIN  46  37  71 S6        30.09F
BOSTON         CLOUDY    45  34  65 SE7       30.11S
DALLAS         CLOUDY    71  64  78 SE12      29.76F
PHILADELPHIA   CLOUDY    45  41  86 NE8       30.03F FOG
LOS ANGELES    MOCLDY    58  51  78 N3        29.96R
WASHINGTON DC  CLOUDY    47  45  93 NE7       30.01F FOG



USA.gov is the U.S. government's official web portal to all federal, state and local government web resources and services.